Content
SEND FEEDBACK

Daily
Averages
Monthly
Summary
United States of America

LENORA, KANSAS


Home > North America > United States > Kansas
Elevation: 2280 feet     Latitude: 39 42N     Longitude: 099 50W

WEATHER
 
SELECT A DAY
Number of Records: 188,250;   Date Range: 1/1/95 - 8/12/14
 
SHARE

PRINT THIS DATA

[ ← Previous Day ]
WEATHER ALMANAC - JANUARY 23, 2013
[ Next Day → ]
[ °C ]   °F
Weather ElementAverageHighLow
Temperature30.5 °F44.1 °F (1:53 pm)21 °F (4:53 am)
Dewpoint20.9 °F26.1 °F (9:53 am)17.1 °F (4:53 am)
Humidity69.6 %85 % (1:53 am)43 % (1:53 pm)
Barometer30.27 in30.44 in (11:53 pm)30.18 in (4:53 am)
Wind Speed6.6 mph12.7 mph (1:53 pm)
Weather ElementAverage
Visibility10 mi
Wind DirectionESE (109.5 °)

Weather ElementTotal
Precipitation---
Heating Degree Days32.5 (Base 65)
Averaged from 22 records on January 23, 2013
WEATHER CONDITIONS BREAKOUT
WIND DIRECTION BREAKOUT
WEATHER BY HOUR - JANUARY 23, 2013
[ °C ]   °F
Local TimeTemperatureDewpointHumidityBarometerVisibilityWind DirectionWind SpeedGust SpeedPrecipitationEventsConditions
1:53 AM21.9 °F18.0 °F85 %30.22 in10.0 miWest (260°)3.5 mphClear
2:53 AM24.1 °F19.0 °F81 %30.20 in10.0 miCalmClear
3:53 AM24.1 °F19.0 °F81 %30.19 in10.0 miSW (230°)3.5 mphClear
4:53 AM21.0 °F17.1 °F85 %30.18 in10.0 miCalmClear
5:53 AM27.0 °F21.0 °F78 %30.19 in10.0 miWest (280°)3.5 mphClear
6:53 AM21.0 °F17.1 °F85 %30.21 in10.0 miWSW (250°)3.5 mphClear
7:53 AM26.1 °F19.0 °F75 %30.20 in10.0 miCalmClear
8:53 AM28.0 °F21.9 °F78 %30.21 in10.0 miCalmClear
9:53 AM35.1 °F26.1 °F70 %30.23 in10.0 miNorth (360°)3.5 mphClear
10:53 AM39.0 °F24.1 °F55 %30.24 in10.0 miNorth (360°)6.9 mphClear
11:53 AM39.9 °F23.0 °F51 %30.25 in10.0 miNNE (30°)6.9 mphClear
12:53 PM42.1 °F23.0 °F47 %30.23 in10.0 miENE (60°)8.1 mphClear
1:53 PM44.1 °F23.0 °F43 %30.22 in10.0 miNE (40°)12.7 mphClear
2:53 PM44.1 °F23.0 °F43 %30.21 in10.0 miNE (50°)12.7 mphClear
4:53 PM39.9 °F23.0 °F51 %30.28 in10.0 miENE (60°)10.4 mphClear
5:53 PM34.0 °F23.0 °F64 %30.30 in10.0 miNE (50°)12.7 mphClear
6:53 PM30.9 °F23.0 °F72 %30.36 in10.0 miENE (60°)8.1 mphClear
7:53 PM28.9 °F21.9 °F75 %30.37 in10.0 miENE (70°)8.1 mphClear
8:53 PM28.0 °F21.0 °F75 %30.40 in10.0 miENE (60°)11.5 mphClear
9:53 PM26.1 °F19.9 °F78 %30.42 in10.0 miENE (60°)12.7 mphClear
10:53 PM24.1 °F17.1 °F75 %30.43 in10.0 miENE (70°)10.4 mphClear
11:53 PM21.0 °F17.1 °F85 %30.44 in10.0 miENE (60°)5.8 mphClear
Hourly data recorded from KHLC, located miles away from Lenora, Kansas







STORIES FROM OUR PARTNERS